DECAYED

CZ-6A DEB, 61172 (Decayed)

Orbit data source: Space-Track

CZ-6A DEB, 61172 was space debris in LEO originally from a launch on Tue, 06 Aug 2024 UTC launched from the Taiyaun Space Center, China (TSC). Debris objects in space refer to the collection of defunct objects orbiting the Earth. Examples of debris include non-operational satellites, rocket bodies, and fragments generated from explosions, collisions, or faulty payload assembly.

Not visible in the next 10 days
Identifier
61172, 2024-140RS
Orbit
Decayed
Country
Flag of CNCN / PRC
Related business
Manufacturer
SAST
Mission
Decayed spacecraft
Bus & Motor
Unknown
Mass
Unknown
Launch date (UTC)
2024-08-06 (2 years ago)
Launch vehicle
Unknown
Launch site
Taiyaun Space Center, China (TSC)
Object type
Payload
Rocket body
Debris
Shape & HBR
Unknown shape, 0.1 m
Radar Cross Section
Medium (>0.1 m² and <1 m²)

Expand to show TLE details & history
Last TLE update: 6 months ago

TLE from 6 months ago
0 CZ-6A DEB
1 61172U 24140RS  25341.36804903  .11169112 -11039-5  35726-2 0  9993
2 61172  89.0262 291.8534 0010601  86.3211 273.9304 16.26217031 71619
Epoch: 2025-12-07T08:49Z
TLE epoch observation values (Epoch: 2025-12-07T08:49:59.436Z)
Latitude
0.00001°
Longitude
82.97331°
Altitude
205.597 km
Speed
7.783 km/s
True Right ascension
19h 27m 24s
True Declination
0° 00' 00"
Sunlit
Object was in daylight at epoch
Visualization orbit readout
Latitude
Unknown
Longitude
Unknown
Altitude
Unknown
Speed
Unknown
Apparent Right ascension
Unknown
Apparent Declination
Unknown
Sunlit
N/A
Visualization observer readout
Local Sidereal Time
08:42:19
Azimuth
Unknown
Elevation
Unknown
Doppler factor
Unknown
Orbital elements
Apogee altitude
206.361 km
Perigee altitude
192.415 km
Semi-major axis
6,577.525 km
Eccentricity
0.00106
Inclination
89.0262°
RAAN
291.8534°
Arg. of periapsis
86.3211°
True anomaly
273.8092°
Mean anomaly
273.9304°
Eccentric anomaly
273.8698°
Mean motion
4.06864 °/min
Orbital period
88.48 mins
BSTAR
0.0035726
Loading maneuver chart data...
Computing Atmospheric mass density...
Loading historical data...
Loading historical data...
Loading historical data...
Loading historical data...
Loading historical data...
Loading historical data...
Loading historical data...

Documentation

Showing up to 5 results
|